Location: Unspecified
(0.0000°N, 0.0000°E)
Time: 05:31:38
(UTC+00:00)

Envisat - Pass Details

Date: 08 August 2020
Orbit: 764 x 766 km, 98.1° (Epoch: 13 August)

Event Time Altitude Azimuth Distance (km) Brightness Sun altitude
Rises 05:04:40 0° 33° (NNE) 3,215 7.1 -14.6°
Reaches altitude 10° 05:07:17 10° 46° (NE) 2,292 6.5 -14.0°
Maximum altitude 05:11:29 27° 102° (ESE) 1,446 5.2 -13.0°
Drops below altitude 10° 05:15:42 10° 159° (SSE) 2,301 5.5 -12.0°
Sets 05:18:19 0° 171° (S) 3,230 6.2 -11.4°
